Lexington, KY

10:04 AM EDT on August 24, 2016 (GMT -0400)
Blue Grass

Weather History for KLEX - November, 2013

Change the Weather History Date:

Friday, November 15, 2013

  Actual Average Record
Temperature  
Mean Temperature 47 °F 47 °F  
Max Temperature 57 °F 56 °F 77 °F (1971)
Min Temperature 36 °F 38 °F 14 °F (1916)
Degree Days  
Heating Degree Days 18 18  
Month to date heating degree days 266 236  
Since 1 July heating degree days 551 562  
Cooling Degree Days 0 0  
Month to date cooling degree days 0 0  
Year to date cooling degree days 1245 1188  
Moisture  
Dew Point 32 °F    
Average Humidity 63    
Maximum Humidity 86    
Minimum Humidity 39    
Precipitation  
Precipitation 0.02 in 0.11 in 1.14 in (2006)
Month to date precipitation 0.86 1.65  
Year to date precipitation 52.36 39.36  
Snow  
Snow 0.00 in 0.00 in 2.00 in (1906)
Month to date snowfall 0.4 0.1  
Since 1 July snowfall 0.4 0.1  
Since 1 September snowfall 0.4 0.1  
Snow Depth 0.00 in    
Sea Level Pressure  
Sea Level Pressure 30.18 in    
Wind  
Wind Speed 8 mph (South)    
Max Wind Speed 20 mph    
Max Gust Speed 25 mph    
Visibility 10 miles    
Events Rain    
T = Trace of Precipitation, MM = Missing Value Source: NWS Daily Summary

Daily Weather History Graph

Daily Weather History Graph

Search for Another Location

Airport or City:

Trip Planner

Search our weather history database for the weather conditions in past years. The results will help you decide how hot, cold, wet, or windy it might be!

Date:

Astronomy

Nov. 15, 2013 Rise Set
Actual Time 7:19 AM EST 5:26 PM EST
Civil Twilight 6:51 AM EST 5:54 PM EST
Nautical Twilight 6:19 AM EST 6:26 PM EST
Astronomical Twilight 5:48 AM EST 6:57 PM EST
Moon 4:21 PM EST (11/15) 5:16 AM EST (11/15)
Length of Visible Light 11h 03m
Length of Day
10h 06m
Waxing Gibbous, 96% of the Moon is Illuminated
Nov 15
Waxing Gibbous
Nov 17
Full
Nov 25
Last Quarter
Dec 2
New
Dec 9
First Quarter

Hourly Weather History & Observations

Time (EST) Temp. Windchill Dew Point Humidity Pressure Visibility Wind Dir Wind Speed Gust Speed Precip Events Conditions
12:54 AM 37.0 °F 30.4 °F 19.9 °F 50% 30.20 in 10.0 mi South 9.2 mph - N/A   Clear
1:54 AM 37.0 °F 30.4 °F 21.0 °F 52% 30.19 in 10.0 mi South 9.2 mph - N/A   Clear
2:54 AM 37.0 °F 29.8 °F 21.9 °F 54% 30.20 in 10.0 mi South 10.4 mph - N/A   Clear
3:54 AM 37.9 °F 30.9 °F 21.0 °F 51% 30.18 in 10.0 mi South 10.4 mph - N/A   Clear
4:54 AM 39.0 °F 32.3 °F 21.0 °F 49% 30.19 in 10.0 mi South 10.4 mph - N/A   Clear
5:54 AM 37.9 °F 32.1 °F 19.9 °F 48% 30.20 in 10.0 mi South 8.1 mph - N/A   Clear
6:54 AM 39.9 °F 34.5 °F 21.0 °F 47% 30.22 in 10.0 mi South 8.1 mph - N/A   Clear
7:54 AM 39.9 °F 34.5 °F 21.9 °F 49% 30.22 in 10.0 mi South 8.1 mph - N/A   Clear
8:54 AM 44.1 °F 39.0 °F 24.1 °F 45% 30.23 in 10.0 mi South 9.2 mph - N/A   Clear
9:54 AM 48.9 °F - 25.0 °F 39% 30.22 in 10.0 mi SSW 12.7 mph - N/A   Clear
10:54 AM 52.0 °F - 28.0 °F 40% 30.22 in 10.0 mi SSW 12.7 mph - N/A   Clear
11:54 AM 55.9 °F - 32.0 °F 40% 30.20 in 10.0 mi SW 17.3 mph - N/A   Clear
12:54 PM 55.0 °F - 35.1 °F 47% 30.18 in 10.0 mi WSW 10.4 mph - N/A   Partly Cloudy
1:54 PM 54.0 °F - 36.0 °F 51% 30.16 in 10.0 mi SW 6.9 mph - N/A   Overcast
2:54 PM 55.0 °F - 37.9 °F 53% 30.14 in 10.0 mi SW 8.1 mph - N/A   Mostly Cloudy
3:54 PM 54.0 °F - 37.9 °F 55% 30.13 in 10.0 mi SW 4.6 mph - N/A   Overcast
4:54 PM 53.1 °F - 39.0 °F 59% 30.14 in 10.0 mi South 3.5 mph - 0.00 in Rain Light Rain
5:54 PM 51.1 °F - 41.0 °F 68% 30.14 in 10.0 mi SE 4.6 mph - 0.00 in Rain Light Rain
6:54 PM 50.0 °F - 43.0 °F 77% 30.16 in 10.0 mi SE 3.5 mph - 0.00 in Rain Light Rain
7:54 PM 48.9 °F - 42.1 °F 77% 30.15 in 10.0 mi ESE 6.9 mph - 0.02 in   Overcast
8:54 PM 48.9 °F - 43.0 °F 80% 30.15 in 10.0 mi SSE 6.9 mph - N/A   Overcast
9:54 PM 48.0 °F - 44.1 °F 86% 30.16 in 10.0 mi SSE 8.1 mph - N/A   Overcast
10:54 PM 48.0 °F - 45.0 °F 89% 30.14 in 10.0 mi SSE 5.8 mph - N/A   Overcast
11:54 PM 46.9 °F - 44.1 °F 90% 30.14 in 9.0 mi SE 6.9 mph - N/A   Overcast